COSMOS 737

Satellite information

Favourite Embed

Satellite Type and Status

PAYLOADIN ORBIT

Key statistics

Satellite COSMOS 737 at a glance.

Uptime

18423

Days in orbit

Revolutions

≈ 12.4

Per day

Orbit

LEO

Low Earth Orbit

Inclination

74.0

Latest

Satellite identification and parameters

Extended collection of information and parameters for COSMOS 737.

Object identification

Identified? True

Debris? False

Object name: COSMOS 737

International designator: 1975-045F

Object number (NORAD): 7826

Object ID (CCSDS): 7826

Country: COMMONWEALTH OF INDEPENDENT STATES (CIS)

Current information (Y/N): Y

RCS size: MEDIUM

Orbital parameters

Period: 115.966 minutes

Inclination: 74.0159 deg

SMA: 7877.368 km

Apoapsis: 1528.222 km

Periapsis: 1470.244 km

RAAN: 262.4141 deg

Eccentricy: 0.00368

Argument of periapsis: 30.2361 deg

Mean anomaly: 85.6089 deg

Mean motion: 12.41741127 rev/day

Mean motion (dot): -0.00000012 rev/day2

B* drag term: 0.000028212 1/REarth

Two-line elements (TLE)

Creation date: Nov. 2, 2025, 3:46 p.m.

Reference frame: TEME

Reference center: EARTH

Epoch: Nov. 2, 2025, 8:32 a.m. UTC

TLE line 0: 0 COSMOS 737

TLE line 1: 1 7826U 75045F 25306.35599556 -.00000012 00000-0 28212-4 0 9990

TLE line 2: 2 7826 74.0159 262.4141 0036800 30.2361 85.6089 12.41741127286184

Live tracking on map

Real-time ground track for satellite COSMOS 737.

In-orbit conjunctions

There are no conjunctions computed for COSMOS 737, at the moment. Check back to stay up to date, as we update our databases every day.

Go to all conjunctions

Associated space launch

Military communications satellites

COSMOS 737 was lifted into orbit during the mission ‘Kosmos-3M | Strela-1M 89-96’, on board a Kosmos-3M space rocket.

The launch took place on May 28, 1975, 12:25 a.m. from 132/1 (132L).

For more information about the launch, click the button.

Launch to space Kosmos-3M | Strela-1M 89-96
Kosmos-3M | Strela-1M 89-96

Agency: N/A

Status: Launch Successful

Launch date: May 28, 1975, 12:25 a.m. UTC

Rocket: Kosmos-3M

Launch pad: 132/1 (132L)

Location: Plesetsk Cosmodrome, Russian Federation

...

Latest news about this satellite

There are no fresh news available about this satellite. Check back as we update our databases every day.


Newsletter sign-up

Weekly statistics, charts and insights to help you stay on top of the space industry.